Flag for U.S.A. Weather past 2 weeks in Jackson, Wyoming, U.S.A.

Now
52 °F

Sunny.


Feels Like: 52 °F
Forecast: 42 / 69 °F
Wind: No wind

Location: Jackson Hole

Current Time: May 30, 2015 at 9:40:03 AM

Latest Report: May 30, 2015 at 8:51 AM


Visibility: 10 mi

Pressure: 30.26 "Hg

Humidity: 72%

Dew point: 43 °F

Location of JacksonLocation

Historic Weather in Jackson — Graph

°F

Jackson temperature yesterday

Maximum temperature yesterday: 64 °F (at 3:50 PM)
Minimum temperature yesterday: 36 °F (at 3:15 AM)
Average temperature yesterday: 46 °F

Past Weeks' High & Low Weather Summary

 TemperatureHumidityPressure
High64 °F (May 29, 3:50 PM)100% (May 15, 7:51 AM)30.32 "Hg (May 15, 7:51 AM)
Low34 °F (May 16, 12:15 AM)32% (May 21, 4:56 PM)29.70 "Hg (May 15, 2:51 PM)
Average44 °F85%30.05 "Hg
* Reported May 15 7:51 AM — May 30 7:51 AM, Jackson, Weather by CustomWeather, © 2015

Note: Actual official high and low records may vary slightly from our data, if they occured in-between our weather recording intervals... More about our weather records

Advertising

Jackson weather history for previous 24 hours

 ConditionsComfort  
Time TempWeatherWind HumidityBarometerVisibility
7:51 AM
Sat, May 30
46 °FSunny.No wind87%30.25 "Hg10 mi
6:51 AM39 °FSunny.No wind100%30.25 "Hg10 mi
6:35 AM39 °FClear.No wind93%30.26 "Hg10 mi
6:15 AM37 °FClear.3 mph100%30.26 "Hg10 mi
5:55 AM37 °FClear.5 mph100%30.25 "Hg10 mi
5:35 AM37 °FClear.3 mph100%30.25 "Hg10 mi
5:15 AM37 °FClear.No wind100%30.25 "Hg10 mi
4:55 AM37 °FClear.5 mph93%30.25 "Hg10 mi
4:35 AM39 °FClear.5 mph100%30.25 "Hg10 mi
4:15 AM37 °FClear.6 mph93%30.25 "Hg10 mi
3:55 AM39 °FClear.6 mph100%30.25 "Hg10 mi
3:35 AM37 °FClear.7 mph93%30.25 "Hg10 mi
3:15 AM39 °FClear.No wind93%30.25 "Hg10 mi
2:55 AM37 °FClear.5 mph93%30.25 "Hg10 mi
2:35 AM43 °FClear.3 mph93%30.25 "Hg10 mi
2:15 AM45 °FClear.3 mph87%30.26 "Hg10 mi
1:55 AM43 °FClear.5 mph100%30.26 "Hg10 mi
1:35 AM45 °FClear.6 mph93%30.25 "Hg10 mi
1:15 AM45 °FClear.5 mph93%30.26 "Hg10 mi
12:55 AM45 °FClear.6 mph93%30.26 "Hg10 mi
12:35 AM45 °FClear.5 mph93%30.26 "Hg10 mi
12:15 AM45 °FClear.7 mph93%30.25 "Hg10 mi
11:55 PM
Fri, May 29
45 °FClear.6 mph93%30.25 "Hg10 mi
11:35 PM46 °FPassing clouds.3 mph87%30.25 "Hg10 mi
11:15 PM50 °FPartly cloudy.No wind82%30.25 "Hg10 mi
10:55 PM48 °FPassing clouds.5 mph87%30.25 "Hg10 mi
10:35 PM48 °FPassing clouds.7 mph87%30.25 "Hg10 mi
10:15 PM52 °FPassing clouds.3 mph77%30.24 "Hg10 mi
9:55 PM54 °FPassing clouds.3 mph67%30.24 "Hg10 mi
9:35 PM52 °FScattered clouds.6 mph77%30.23 "Hg10 mi
8:55 PM52 °FScattered clouds.5 mph77%30.21 "Hg10 mi
7:55 PM57 °FSunny.6 mph59%30.21 "Hg10 mi
6:51 PM63 °FSunny.7 mph49%30.21 "Hg10 mi
5:48 PM64 °FPartly sunny.No wind34%30.23 "Hg10 mi
4:48 PM63 °FPartly sunny.7 mph37%30.24 "Hg10 mi
3:50 PM64 °FSunny.12 mph40%30.24 "Hg10 mi
2:48 PM63 °FSunny.12 mph39%30.25 "Hg10 mi
1:47 PM61 °FSunny.9 mph45%30.28 "Hg10 mi
12:51 PM57 °FSunny.No wind59%30.29 "Hg10 mi
12:15 PM54 °FPassing clouds.No wind72%30.30 "Hg10 mi
11:00 AM48 °FScattered showers. Overcast.No wind82%30.32 "Hg10 mi
9:51 AM45 °FFog.No wind93%30.32 "Hg10 mi
Weather by CustomWeather, © 2015

See weather overviewHow to use our weather pages